Location: Cairns City
(16.9233°S, 145.7733°E)
Time: 13:01:11
(UTC+10:00)

OTV 5 (USA 277) - Visible Passes

Search period start: 19 June 2018 00:00
Search period end: 29 June 2018 00:00
Orbit: 313 x 320 km, 54.5° (Epoch: 18 June)

Date Brightness Start Highest point End Pass type
(mag) Time Alt. Az. Time Alt. Az. Time Alt. Az.
19 Jun ? 05:56:59 10° NNE 05:58:38 15° ENE 06:00:17 10° E visible
20 Jun ? 06:10:15 10° NNW 06:12:56 72° NE 06:15:41 10° SE visible
22 Jun ? 05:07:47 29° ENE 05:07:47 29° ENE 05:10:05 10° ESE visible
